Pittsfield, MA

12:54 AM EST on December 12, 2017 (GMT -0500)
Pittsfield Municipal

Weather History for KPSF - May, 2013

Change the Weather History Date:

Saturday, May 11, 2013

  Actual Average Record
Temperature  
Mean Temperature 59 °F 53 °F  
Max Temperature 64 °F 65 °F 84 °F (1953)
Min Temperature 53 °F 42 °F 25 °F (1966)
Degree Days  
Heating Degree Days 6 12  
Month to date heating degree days 89 147  
Since 1 July heating degree days 6725 7182  
Cooling Degree Days 0 0  
Month to date cooling degree days 0 0  
Year to date cooling degree days 0 2  
Growing Degree Days 8 (Base 50)    
Moisture  
Dew Point 57 °F    
Average Humidity 80    
Maximum Humidity 97    
Minimum Humidity 63    
Precipitation  
Precipitation 0.69 in 0.10 in 1.09 in (1952)
Month to date precipitation 1.74 1.21  
Year to date precipitation 9.63 14.04  
Sea Level Pressure  
Sea Level Pressure 29.71 in    
Wind  
Wind Speed 8 mph (SSW)    
Max Wind Speed 17 mph    
Max Gust Speed 24 mph    
Visibility 7 miles    
Events Fog , Rain , Thunderstorm    
T = Trace of Precipitation, MM = Missing Value Source: NWS Daily Summary

Daily Weather History Graph

Daily Weather History Graph

Search for Another Location

Airport or City:

Trip Planner

Search our weather history database for the weather conditions in past years. The results will help you decide how hot, cold, wet, or windy it might be!

Date:

Astronomy

May. 11, 2013 Rise Set
Actual Time 5:35 AM EDT 8:04 PM EDT
Civil Twilight 5:03 AM EDT 8:36 PM EDT
Nautical Twilight 4:24 AM EDT 9:15 PM EDT
Astronomical Twilight 3:39 AM EDT 10:00 PM EDT
Moon 6:40 AM EDT (5/11) 9:42 PM EDT (5/11)
Length of Visible Light 15h 32m
Length of Day
14h 28m
Waxing Crescent, 3% of the Moon is Illuminated
May 11
Waxing Crescent
May 18
First Quarter
May 25
Full
May 31
Last Quarter
Jun 8
New

Hourly Weather History & Observations

Time (EDT) Temp. Dew Point Humidity Pressure Visibility Wind Dir Wind Speed Gust Speed Precip Events Conditions
12:54 AM 64.0 °F 52.0 °F 65% 29.79 in 10.0 mi South 8.1 mph - N/A   Clear
1:54 AM 64.0 °F 53.1 °F 67% 29.78 in 10.0 mi SSW 9.2 mph - N/A   Scattered Clouds
2:54 AM 63.0 °F 53.1 °F 70% 29.76 in 10.0 mi SSW 10.4 mph 16.1 mph N/A   Mostly Cloudy
3:54 AM 61.0 °F 55.0 °F 81% 29.73 in 9.0 mi Variable 4.6 mph - 0.00 in Rain Light Rain
4:54 AM 59.0 °F 55.9 °F 90% 29.71 in 5.0 mi South 6.9 mph - 0.02 in Rain Light Rain
5:27 AM 59.0 °F 55.4 °F 88% 29.78 in 7.0 mi South 6.9 mph - 0.01 in Rain Light Rain
5:52 AM 59.0 °F 55.4 °F 88% 29.78 in 7.0 mi South 9.2 mph - 0.02 in Rain Light Rain
5:54 AM 59.0 °F 55.9 °F 90% 29.72 in 7.0 mi South 9.2 mph - 0.02 in Rain Light Rain
6:21 AM 59.0 °F 55.4 °F 88% 29.79 in 6.0 mi South 9.2 mph - 0.01 in Rain Light Rain
6:38 AM 59.0 °F 57.2 °F 94% 29.78 in 7.0 mi South 8.1 mph - 0.01 in Rain Light Rain
6:45 AM 59.0 °F 57.2 °F 94% 29.78 in 9.0 mi South 9.2 mph - 0.01 in Rain Light Rain
6:52 AM 59.0 °F 57.2 °F 94% 29.78 in 10.0 mi South 9.2 mph - 0.01 in   Overcast
6:54 AM 59.0 °F 55.9 °F 90% 29.72 in 10.0 mi South 10.4 mph - 0.01 in   Mostly Cloudy
7:04 AM 59.0 °F 57.2 °F 94% 29.78 in 10.0 mi South 11.5 mph - N/A   Mostly Cloudy
7:54 AM 60.1 °F 57.0 °F 90% 29.71 in 10.0 mi SSW 4.6 mph - N/A   Overcast
8:45 AM 60.8 °F 57.2 °F 88% 29.76 in 10.0 mi SSW 9.2 mph - N/A   Overcast
8:54 AM 61.0 °F 57.0 °F 87% 29.70 in 10.0 mi SSW 8.1 mph - N/A   Overcast
9:04 AM 60.8 °F 57.2 °F 88% 29.76 in 10.0 mi South 5.8 mph 17.3 mph N/A   Overcast
9:50 AM 62.6 °F 57.2 °F 82% 29.75 in 10.0 mi SSW 16.1 mph 24.2 mph N/A   Overcast
9:54 AM 62.1 °F 57.0 °F 84% 29.69 in 10.0 mi SSW 11.5 mph 24.2 mph 0.00 in Rain Light Rain
10:54 AM 64.0 °F 57.9 °F 80% 29.68 in 9.0 mi SSW 13.8 mph 20.7 mph 0.00 in Rain Light Rain
11:13 AM 62.6 °F 57.2 °F 82% 29.75 in 10.0 mi SSW 13.8 mph 19.6 mph 0.00 in   Overcast
11:39 AM 62.6 °F 57.2 °F 82% 29.74 in 10.0 mi SSW 10.4 mph 20.7 mph 0.00 in   Overcast
11:54 AM 63.0 °F 57.9 °F 84% 29.68 in 10.0 mi SW 13.8 mph 18.4 mph 0.00 in   Overcast
12:14 PM 62.6 °F 57.2 °F 82% 29.73 in 7.0 mi SW 12.7 mph 18.4 mph 0.00 in Rain Light Rain
12:54 PM 62.1 °F 59.0 °F 90% 29.67 in 3.0 mi SSW 8.1 mph - 0.02 in Rain Light Rain
1:19 PM 62.6 °F 59.0 °F 88% 29.72 in 10.0 mi SSW 13.8 mph 19.6 mph 0.01 in   Overcast
1:38 PM 62.6 °F 60.8 °F 94% 29.72 in 1.8 mi SSW 12.7 mph 19.6 mph 0.04 in Rain Rain
1:54 PM 63.0 °F 60.1 °F 90% 29.66 in 2.5 mi SSW 10.4 mph 20.7 mph 0.07 in Rain Light Rain
2:03 PM 62.6 °F 60.8 °F 94% 29.71 in 5.0 mi SSW 10.4 mph 17.3 mph 0.00 in Rain Light Rain
2:16 PM 62.6 °F 60.8 °F 94% 29.71 in 1.8 mi SW 8.1 mph - 0.03 in Rain Light Rain
2:20 PM 62.6 °F 60.8 °F 94% 29.71 in 2.0 mi Variable 5.8 mph - 0.03 in Rain , Thunderstorm Light Thunderstorms and Rain
2:29 PM 62.6 °F 60.8 °F 94% 29.71 in 0.8 mi SW 12.7 mph - 0.14 in Rain , Thunderstorm Heavy Thunderstorms and Rain
2:39 PM 60.8 °F 57.2 °F 88% 29.70 in 0.5 mi WSW 10.4 mph 17.3 mph 0.31 in Fog , Rain Heavy Rain
2:50 PM 60.8 °F 57.2 °F 88% 29.70 in 2.0 mi South 6.9 mph - 0.34 in Rain Light Rain
2:54 PM 61.0 °F 57.9 °F 90% 29.65 in 8.0 mi South 6.9 mph - 0.34 in   Overcast
3:19 PM 62.6 °F 60.8 °F 94% 29.70 in 4.0 mi WSW 5.8 mph - 0.01 in Rain Light Rain
3:28 PM 62.6 °F 60.8 °F 94% 29.70 in 4.0 mi SSW 4.6 mph - 0.02 in Rain Light Rain
3:43 PM 62.6 °F 60.8 °F 94% 29.71 in 2.5 mi SW 4.6 mph - 0.05 in Rain Light Rain
3:51 PM 62.6 °F 60.8 °F 94% 29.71 in 4.0 mi SW 6.9 mph - 0.05 in Rain Light Rain
3:54 PM 63.0 °F 60.1 °F 90% 29.65 in 5.0 mi SW 6.9 mph - 0.06 in Rain Light Rain
4:44 PM 62.6 °F 60.8 °F 94% 29.71 in 1.8 mi SW 9.2 mph - 0.06 in Rain Light Rain
4:54 PM 62.1 °F 59.0 °F 90% 29.66 in 1.8 mi SSW 11.5 mph 16.1 mph 0.08 in Rain Light Rain
5:00 PM 62.6 °F 57.2 °F 82% 29.70 in 3.0 mi SW 6.9 mph - 0.01 in Rain Light Rain
5:54 PM 61.0 °F 57.9 °F 90% 29.65 in 10.0 mi SSW 8.1 mph - 0.07 in   Mostly Cloudy
6:54 PM 62.1 °F 57.9 °F 86% 29.66 in 10.0 mi South 6.9 mph - N/A   Overcast
7:54 PM 61.0 °F 59.0 °F 93% 29.66 in 10.0 mi Calm Calm - N/A   Overcast
8:09 PM 60.8 °F 57.2 °F 88% 29.71 in 9.0 mi Calm Calm - N/A   Overcast
8:16 PM 60.8 °F 57.2 °F 88% 29.70 in 9.0 mi Calm Calm - N/A   Overcast
8:42 PM 60.8 °F 57.2 °F 88% 29.70 in 9.0 mi Calm Calm - N/A   Overcast
8:50 PM 60.8 °F 57.2 °F 88% 29.70 in 8.0 mi Calm Calm - N/A   Overcast
8:54 PM 60.1 °F 57.9 °F 93% 29.65 in 7.0 mi Calm Calm - N/A   Overcast
9:33 PM 60.8 °F 57.2 °F 88% 29.70 in 6.0 mi Calm Calm - N/A   Overcast
9:50 PM 59.0 °F 55.4 °F 88% 29.70 in 10.0 mi West 8.1 mph - N/A   Overcast
9:54 PM 57.9 °F 55.9 °F 93% 29.65 in 10.0 mi West 6.9 mph - N/A   Overcast
10:54 PM 55.9 °F 52.0 °F 87% 29.66 in 10.0 mi West 6.9 mph - N/A   Overcast
11:50 PM 53.6 °F 48.2 °F 82% 29.70 in 10.0 mi WNW 5.8 mph - 0.00 in   Mostly Cloudy
11:54 PM 53.1 °F 48.9 °F 86% 29.66 in 10.0 mi West 5.8 mph - 0.00 in   Mostly Cloudy